West Bend, WI

7:42 PM CDT on October 22, 2019 (GMT -0500)
West Bend Municipal

Weather History for KETB - August, 2019

Change the Weather History Date:

Wednesday, August 21, 2019

  Actual Average Record
Temperature  
Mean Temperature 70 °F -  
Max Temperature 78 °F 77 °F 95 °F (1955)
Min Temperature 62 °F 56 °F 42 °F (1950)
Cooling Degree Days 5    
Growing Degree Days 20 (Base 50)    
Moisture  
Dew Point 62 °F    
Average Humidity 75    
Maximum Humidity 100    
Minimum Humidity 50    
Precipitation  
Precipitation 0.00 in - - ()
Sea Level Pressure  
Sea Level Pressure 29.96 in    
Wind  
Wind Speed 4 mph (NW)    
Max Wind Speed 14 mph    
Max Gust Speed 21 mph    
Visibility 9 miles    
Events      
Averages and records for this station are not official NWS values.
T = Trace of Precipitation, MM = Missing Value Source: NWS Daily Summary

Daily Weather History Graph

Daily Weather History Graph

Search for Another Location

Airport or City:

Astronomy

Aug. 21, 2019 Rise Set
Actual Time 6:04 AM CDT 7:46 PM CDT
Civil Twilight 5:33 AM CDT 8:16 PM CDT
Nautical Twilight 4:56 AM CDT 8:53 PM CDT
Astronomical Twilight 4:16 AM CDT 9:33 PM CDT
Moon 10:53 PM CDT (8/21) 11:49 AM CDT (8/21)
Length of Visible Light 14h 43m
Length of Day
13h 42m
Waning Gibbous, 69% of the Moon is Illuminated
Aug 21
Waning Gibbous
Aug 23
Last Quarter
Aug 30
New
Sep 5
First Quarter
Sep 13
Full

Hourly Weather History & Observations

Time (CDT) Temp. Dew Point Humidity Pressure Visibility Wind Dir Wind Speed Gust Speed Precip Events Conditions
1:15 AM 68.0 °F 64.4 °F 88% 29.95 in 10.0 mi Calm Calm - N/A   Clear
2:15 AM 64.4 °F 64.4 °F 100% 29.95 in 10.0 mi Calm Calm - N/A   Clear
2:35 AM 64.4 °F 64.4 °F 100% 29.95 in 10.0 mi Calm Calm - N/A   Clear
2:55 AM 66.2 °F 66.2 °F 100% 29.95 in 10.0 mi Calm Calm - N/A   Clear
3:15 AM 66.2 °F 64.4 °F 94% 29.95 in 10.0 mi Calm Calm - N/A   Clear
3:55 AM 64.4 °F 64.4 °F 100% 29.94 in 10.0 mi Calm Calm - N/A   Mostly Cloudy
4:35 AM 64.4 °F 64.4 °F 100% 29.94 in 7.0 mi Calm Calm - N/A   Clear
4:55 AM 64.4 °F 64.4 °F 100% 29.92 in 5.0 mi Calm Calm - N/A   Clear
5:15 AM 64.4 °F 64.4 °F 100% 29.93 in 1.5 mi Calm Calm - N/A   Scattered Clouds
5:35 AM 62.6 °F 62.6 °F 100% 29.92 in 2.0 mi Calm Calm - N/A   Mostly Cloudy
5:55 AM 64.4 °F 64.4 °F 100% 29.91 in 5.0 mi Calm Calm - N/A   Scattered Clouds
6:35 AM 62.6 °F 62.6 °F 100% 29.92 in 1.5 mi Calm Calm - N/A   Scattered Clouds
6:55 AM 64.4 °F 64.4 °F 100% 29.96 in 5.0 mi Calm Calm - N/A   Mostly Cloudy
7:15 AM 64.4 °F 64.4 °F 100% 29.96 in 7.0 mi Calm Calm - N/A   Overcast
7:35 AM 68.0 °F 68.0 °F 100% 29.96 in 10.0 mi Calm Calm - N/A   Mostly Cloudy
7:55 AM 69.8 °F 68.0 °F 94% 29.96 in 10.0 mi West 5.8 mph - N/A   Scattered Clouds
8:15 AM 71.6 °F 68.0 °F 88% 29.96 in 10.0 mi West 5.8 mph - N/A   Mostly Cloudy
8:35 AM 73.4 °F 68.0 °F 83% 29.95 in 10.0 mi West 5.8 mph - N/A   Mostly Cloudy
8:55 AM 73.4 °F 68.0 °F 83% 29.95 in 10.0 mi West 6.9 mph - N/A   Scattered Clouds
9:15 AM 73.4 °F 68.0 °F 83% 29.95 in 10.0 mi West 8.1 mph - N/A   Scattered Clouds
9:55 AM 75.2 °F 68.0 °F 78% 29.95 in 10.0 mi West 8.1 mph - N/A   Clear
10:15 AM 77.0 °F 68.0 °F 74% 29.95 in 10.0 mi West 4.6 mph - N/A   Scattered Clouds
10:35 AM 77.0 °F 69.8 °F 78% 29.95 in 10.0 mi West 6.9 mph - N/A   Mostly Cloudy
10:55 AM 77.0 °F 68.0 °F 74% 29.96 in 10.0 mi West 8.1 mph - N/A   Mostly Cloudy
11:15 AM 78.8 °F 68.0 °F 69% 29.96 in 10.0 mi NW 5.8 mph - N/A   Mostly Cloudy
11:35 AM 78.8 °F 69.8 °F 74% 29.97 in 10.0 mi WNW 11.5 mph - N/A   Scattered Clouds
11:55 AM 77.0 °F 68.0 °F 74% 29.97 in 10.0 mi NW 11.5 mph 20.7 mph N/A   Scattered Clouds
12:15 PM 77.0 °F 68.0 °F 74% 29.97 in 10.0 mi West 12.7 mph - N/A   Mostly Cloudy
12:35 PM 75.2 °F 68.0 °F 78% 29.97 in 10.0 mi NW 13.8 mph 17.3 mph N/A   Overcast
12:55 PM 75.2 °F 66.2 °F 73% 29.97 in 10.0 mi NW 10.4 mph - N/A   Mostly Cloudy
1:15 PM 75.2 °F 64.4 °F 69% 29.97 in 10.0 mi NW 10.4 mph 16.1 mph N/A   Scattered Clouds
1:35 PM 77.0 °F 64.4 °F 65% 29.96 in 10.0 mi WNW 9.2 mph - N/A   Scattered Clouds
1:55 PM 77.0 °F 62.6 °F 61% 29.96 in 10.0 mi NW 13.8 mph 17.3 mph N/A   Scattered Clouds
2:15 PM 77.0 °F 60.8 °F 57% 29.96 in 10.0 mi NW 10.4 mph - N/A   Scattered Clouds
2:35 PM 77.0 °F 60.8 °F 57% 29.96 in 10.0 mi West 10.4 mph - N/A   Clear
2:55 PM 77.0 °F 62.6 °F 61% 29.97 in 10.0 mi West 10.4 mph - N/A   Scattered Clouds
3:15 PM 77.0 °F 62.6 °F 61% 29.97 in 10.0 mi WNW 9.2 mph - N/A   Scattered Clouds
3:35 PM 75.2 °F 64.4 °F 69% 29.97 in 10.0 mi West 8.1 mph - N/A   Mostly Cloudy
3:55 PM 75.2 °F 62.6 °F 65% 29.97 in 10.0 mi West 10.4 mph - N/A   Mostly Cloudy
4:15 PM 75.2 °F 60.8 °F 61% 29.97 in 10.0 mi WNW 11.5 mph 17.3 mph N/A   Scattered Clouds
4:35 PM 75.2 °F 59.0 °F 57% 29.97 in 10.0 mi NW 9.2 mph - N/A   Scattered Clouds
4:55 PM 75.2 °F 59.0 °F 57% 29.96 in 10.0 mi NW 11.5 mph - N/A   Clear
5:15 PM 75.2 °F 59.0 °F 57% 29.95 in 10.0 mi NNW 10.4 mph 16.1 mph N/A   Clear
5:35 PM 73.4 °F 57.2 °F 57% 29.95 in 10.0 mi NW 11.5 mph 16.1 mph N/A   Clear
5:55 PM 75.2 °F 55.4 °F 50% 29.94 in 10.0 mi NNW 8.1 mph - N/A   Clear
6:15 PM 73.4 °F 57.2 °F 57% 29.94 in 10.0 mi NW 8.1 mph - N/A   Clear
6:35 PM 71.6 °F 57.2 °F 60% 29.94 in 10.0 mi NNW 6.9 mph - N/A   Clear
6:55 PM 71.6 °F 55.4 °F 57% 29.94 in 10.0 mi NNW 6.9 mph - N/A   Clear
7:35 PM 68.0 °F 55.4 °F 64% 29.95 in 10.0 mi NNW 5.8 mph - N/A   Clear
7:55 PM 68.0 °F 55.4 °F 64% 29.95 in 10.0 mi NNW 3.5 mph - N/A   Clear
8:15 PM 66.2 °F 53.6 °F 64% 29.96 in 10.0 mi NNW 4.6 mph - N/A   Clear
8:35 PM 66.2 °F 53.6 °F 64% 29.97 in 10.0 mi NW 3.5 mph - N/A   Clear
8:55 PM 64.4 °F 53.6 °F 68% 29.97 in 10.0 mi Calm Calm - N/A   Clear
9:15 PM 66.2 °F 53.6 °F 64% 29.98 in 10.0 mi NW 3.5 mph - N/A   Clear
9:35 PM 66.2 °F 53.6 °F 64% 29.99 in 10.0 mi WNW 3.5 mph - N/A   Clear
9:55 PM 66.2 °F 53.6 °F 64% 30.00 in 10.0 mi Calm Calm - N/A   Clear
10:15 PM 64.4 °F 53.6 °F 68% 30.00 in 10.0 mi Calm Calm - N/A   Clear
10:35 PM 64.4 °F 53.6 °F 68% 30.00 in 10.0 mi NNW 3.5 mph - N/A   Clear
10:55 PM 64.4 °F 53.6 °F 68% 30.01 in 10.0 mi NNW 3.5 mph - N/A   Clear
11:15 PM 62.6 °F 53.6 °F 72% 30.01 in 10.0 mi NNW 4.6 mph - N/A   Clear
11:35 PM 62.6 °F 53.6 °F 72% 30.02 in 10.0 mi North 5.8 mph - N/A   Clear
11:55 PM 62.6 °F 51.8 °F 68% 30.02 in 10.0 mi North 4.6 mph - N/A   Clear